Content
SEND FEEDBACK

Daily
Averages
Monthly
Summary
United States of America

MERIZO, GUAM


Home > North America > United States > Guam
Elevation: 10 feet     Latitude: 13 14N     Longitude: 144 39E

WEATHER
 
SELECT A DAY
Number of Records: 341,716;   Date Range: 1/1/95 - 7/22/14
 
SHARE

PRINT THIS DATA

[ ← Previous Day ]
WEATHER ALMANAC - OCTOBER 8, 2013
[ Next Day → ]
[ °C ]   °F
We're sorry. There is no daily almanac available for Merizo, Guam on October 8, 2013.
WEATHER BY HOUR - OCTOBER 8, 2013
[ °C ]   °F
Local TimeTemperatureDewpointHumidityBarometerVisibilityWind DirectionWind SpeedGust SpeedPrecipitationEventsConditions
1:58 AM68.7 °F68.0 °F98 %29.59 in10.0 miCalmClear
2:58 AM68.9 °F68.4 °F98 %29.58 in10.0 miCalmClear
3:58 AM77.0 °F70.7 °F81 %29.58 in10.0 miWest (270°)3.5 mphClear
4:58 AM77.0 °F70.0 °F79 %29.58 in10.0 miCalmClear
5:58 AM75.9 °F75.4 °F98 %29.60 in10.0 miCalmClear
6:58 AM75.2 °F74.7 °F98 %29.62 in10.0 miCalmClear
7:58 AM80.6 °F75.2 °F84 %29.63 in10.0 miCalmClear
8:58 AM82.2 °F77.2 °F85 %29.65 in10.0 miNorth (360°)2.3 mphPartly Cloudy
9:58 AM84.0 °F77.7 °F81 %29.65 in8.0 miCalmPartly Cloudy
10:58 AM82.9 °F76.3 °F80 %29.63 in10.0 miVariable4.6 mphClear
11:58 AM84.7 °F77.4 °F78 %29.61 in10.0 miNorth (350°)9.2 mphPartly Cloudy
12:58 PM83.5 °F76.8 °F80 %29.59 in10.0 miNNW (340°)10.4 mphClear
1:58 PM83.5 °F75.4 °F76 %29.57 in10.0 miNNW (330°)6.9 mphPartly Cloudy
2:58 PM82.9 °F75.4 °F78 %29.57 in10.0 miNW (320°)5.8 mphClear
3:20 PM82.4 °F77.0 °F84 %29.69 in10.0 miNNW (340°)3.5 mphLight Drizzle
3:28 PM82.4 °F75.2 °F79 %29.69 in10.0 miNNW (340°)4.6 mphClear
3:58 PM79.3 °F73.4 °F82 %29.58 in10.0 miNNW (340°)5.8 mph0.00 inClear
4:58 PM81.7 °F76.1 °F83 %29.59 in10.0 miNNW (340°)5.8 mphClear
5:58 PM81.0 °F76.8 °F87 %29.60 in10.0 miNW (310°)2.3 mphClear
6:58 PM80.2 °F76.6 °F89 %29.61 in10.0 miNW (320°)3.5 mphScattered Clouds
7:58 PM79.2 °F76.5 °F91 %29.62 in10.0 miNNE (20°)2.3 mphClear
8:58 PM78.8 °F76.6 °F93 %29.73 in10.0 miCalmClear
9:58 PM78.4 °F76.6 °F94 %29.74 in10.0 miNW (320°)2.3 mphClear
10:58 PM78.1 °F76.6 °F95 %29.73 in10.0 miCalmClear
11:58 PM77.7 °F76.1 °F95 %29.73 in10.0 miWSW (250°)3.5 mphClear
Hourly data recorded from PGUA, located miles away from Merizo, Guam







STORIES FROM OUR PARTNERS